User: anonymous   Login
Location: Melbourne
(37.8170°S, 144.9670°E)
Time: 13:16:00
(UTC+11:00)
Language:

Aureole 2 Rocket - Orbit

View from above orbital plane
View from above orbital plane
View from above satellite
View from above satellite

Ground track
Ground track

The orbit data is extracted from the following two-line orbital elements,

1 07004U 73107B   18054.52050607  .00009185  00000-0  12193-3 0  9994
2 07004  73.9307 234.4879 0155595  39.6381 321.6078 15.45201587275941
Epoch (UTC): 23 February 2018 12:29:31
Eccentricity: 0.0155595
inclination: 73.9307°
perigee height: 325 km
apogee height: 537 km
right ascension of ascending node: 234.4879°
argument of perigee: 39.6381°
revolutions per day: 15.45201587
mean anomaly at epoch: 321.6078°
orbit number at epoch: 27594

The dashed part of the orbit path shows where the satellite is in the earth's shadow,  

DLR